Latest Weather Observations for Port Fairy

IDV60801

Issued at 6:02 am EDT Friday 27 March 2015 (issued every 30 minutes, with the page automatically refreshed every 10 minutes)

About weather observations | Map of weather stations | Latest weather observations for VIC | Other Formats
Station Details ID: 090175 Name: PORT FAIRY AWS Lat: -38.39 Lon: 142.23 Height: 10.0 m
Data from the previous 72 hours. | See also: Recent months at Port Fairy
Date/Time
EDT
Temp
°C
App
Temp
°C
Dew
Point
Rel
Hum
%
Delta-T
°C
Wind Press
QNH
hPa
Press
MSL
hPa
Rain
since 9 am
mm
Dir
 
Spd
km/h
Gust
km/h
Spd
kts
Gust
kts
27/06:00am 13.9 6.5 9.7 76 2.1 SW 39 50 21 27 1023.0 1023.0 14.4
27/05:30am 13.9 7.3 9.9 77 2.1 WSW 35 46 19 25 1022.8 1022.8 14.4
27/05:00am 14.3 7.2 9.5 73 2.5 SW 37 50 20 27 1022.5 1022.5 14.4
27/04:30am 13.8 7.4 10.8 82 1.6 SW 35 48 19 26 1022.2 1022.2 14.4
27/04:00am 13.5 6.2 10.1 80 1.8 WSW 39 50 21 27 1022.2 1022.2 14.4
27/03:30am 14.1 6.6 10.9 81 1.7 SW 41 52 22 28 1022.0 1022.0 14.4
27/03:00am 14.0 7.2 10.6 80 1.8 SW 37 48 20 26 1022.0 1022.0 14.4
27/02:30am 14.2 7.1 10.8 80 1.8 SW 39 50 21 27 1021.9 1021.9 14.4
27/02:11am 14.1 8.5 12.1 88 1.1 SW 33 54 18 29 1021.9 1021.9 14.4
27/02:00am 14.3 7.7 11.3 82 1.6 SW 37 50 20 27 1021.8 1021.8 14.2
27/01:30am 14.0 7.4 11.2 83 1.5 WSW 37 48 20 26 1021.7 1021.7 14.2
27/01:00am 14.1 7.6 11.6 85 1.3 SW 37 50 20 27 1021.7 1021.7 14.2
27/12:30am 14.3 6.8 10.9 80 1.8 SW 41 56 22 30 1021.6 1021.6 14.2
27/12:00am 14.3 6.4 11.3 82 1.6 SW 44 59 24 32 1021.6 1021.6 14.2
 
Date/Time
EDT
Temp
°C
App
Temp
°C
Dew
Point
Rel
Hum
%
Delta-T
°C
Wind Press
QNH
hPa
Press
MSL
hPa
Rain
since 9 am
mm
Dir
 
Spd
km/h
Gust
km/h
Spd
kts
Gust
kts
26/11:30pm 14.2 6.9 11.7 85 1.3 SW 41 56 22 30 1021.4 1021.4 14.2
26/11:08pm 14.5 7.6 11.7 83 1.5 SW 39 61 21 33 1021.4 1021.4 13.8
26/11:00pm 14.4 7.4 11.2 81 1.7 SW 39 50 21 27 1021.2 1021.2 13.8
26/10:30pm 15.0 7.7 11.6 80 1.8 SW 41 54 22 29 1020.9 1020.9 13.8
26/10:01pm 14.8 7.5 11.6 81 1.7 SW 41 63 22 34 1020.7 1020.7 13.8
26/10:00pm 14.5 7.1 11.3 81 1.7 SW 41 56 22 30 1020.7 1020.7 13.8
26/09:30pm 14.8 6.9 11.4 80 1.8 SW 44 59 24 32 1020.3 1020.3 13.8
26/09:00pm 14.3 7.5 11.8 85 1.3 WSW 39 54 21 29 1019.9 1019.9 13.8
26/08:30pm 14.3 6.8 12.0 86 1.2 SW 43 56 23 30 1019.5 1019.5 13.8
26/08:18pm 14.7 7.7 11.3 80 1.8 SW 39 57 21 31 1019.2 1019.2 13.8
26/08:00pm 14.7 6.9 11.1 79 1.9 SW 43 56 23 30 1019.0 1019.0 13.8
26/07:30pm 14.1 5.9 10.3 78 2.0 SW 44 59 24 32 1018.4 1018.4 13.8
26/07:00pm 14.8 7.1 11.6 81 1.7 SW 43 57 23 31 1017.9 1017.9 13.8
26/06:30pm 14.5 6.7 11.1 80 1.8 WSW 43 57 23 31 1017.3 1017.3 13.8
26/06:00pm 14.1 6.6 12.1 88 1.1 WSW 43 54 23 29 1016.9 1016.9 13.8
26/05:30pm 13.7 5.7 12.4 92 0.7 WSW 46 63 25 34 1016.3 1016.3 13.2
26/05:07pm 13.6 5.3 12.7 94 0.5 WSW 48 67 26 36 1015.9 1015.9 12.4
26/05:00pm 13.7 4.6 12.4 92 0.7 WSW 52 69 28 37 1015.9 1015.9 12.4
26/04:30pm 13.0 3.4 12.1 94 0.5 WSW 54 70 29 38 1015.6 1015.6 11.2
26/04:00pm 13.9 5.0 11.8 87 1.1 W 50 72 27 39 1014.8 1014.8 8.6
26/03:30pm 13.6 3.7 12.3 92 0.7 W 56 78 30 42 1014.8 1014.8 8.6
26/03:00pm 13.4 5.7 12.0 91 0.8 W 44 76 24 41 1014.7 1014.7 7.8
26/02:30pm 12.6 4.7 11.5 93 0.6 W 44 78 24 42 1014.6 1014.6 7.6
26/02:23pm 12.7 4.8 11.6 93 0.6 W 44 78 24 42 1014.6 1014.6 7.4
26/02:00pm 11.6 6.5 10.7 94 0.5 WNW 28 48 15 26 1014.8 1014.8 5.8
26/01:59pm 11.6 6.5 10.7 94 0.5 WNW 28 48 15 26 1014.8 1014.8 5.8
26/01:30pm 11.2 5.8 9.6 90 0.8 WNW 28 44 15 24 1015.4 1015.4 4.0
26/01:17pm 11.5 6.1 9.6 88 1.0 NW 28 50 15 27 1015.2 1015.2 3.0
26/01:00pm 11.5 6.9 9.8 89 0.9 NW 24 43 13 23 1015.5 1015.5 3.0
26/12:37pm 11.7 6.4 9.8 88 1.0 WNW 28 48 15 26 1015.8 1015.8 2.8
26/12:30pm 11.5 6.5 9.4 87 1.1 WNW 26 41 14 22 1016.0 1016.0 2.8
26/12:00pm 10.8 4.9 8.9 88 0.9 WNW 30 57 16 31 1016.2 1016.2 2.6
26/11:58am 10.9 5.4 9.3 90 0.8 WNW 28 57 15 31 1016.3 1016.3 2.6
26/11:30am 11.0 6.6 8.8 86 1.1 WNW 22 43 12 23 1016.5 1016.5 1.2
26/11:00am 11.5 6.4 7.8 78 1.8 WNW 24 50 13 27 1016.2 1016.2 0.2
26/10:30am 12.0 7.4 8.1 77 1.9 NW 22 39 12 21 1016.3 1016.3 0.0
26/10:00am 10.1 4.8 7.0 81 1.5 NW 24 43 13 23 1016.2 1016.2 0.0
26/09:30am 9.4 4.2 7.3 87 1.0 NW 24 41 13 22 1015.9 1015.9 0.0
26/09:00am 8.1 3.7 6.7 91 0.6 NNW 19 30 10 16 1016.2 1016.2 13.0
26/08:30am 7.9 3.9 6.5 91 0.6 NNW 17 26 9 14 1015.9 1015.9 13.0
26/08:00am 7.8 3.4 6.7 93 0.5 NNW 19 26 10 14 1015.8 1015.8 13.0
26/07:30am 8.1 4.2 7.0 93 0.5 NW 17 28 9 15 1015.8 1015.8 12.8
26/07:00am 8.1 4.1 6.7 91 0.6 NNW 17 26 9 14 1015.1 1015.1 11.0
26/06:30am 8.5 4.1 6.6 88 0.9 NW 19 30 10 16 1014.8 1014.8 10.8
26/06:00am 9.4 4.5 6.7 83 1.3 W 22 33 12 18 1014.9 1014.9 10.8
26/05:34am 9.2 2.8 7.0 86 1.0 W 30 57 16 31 1014.8 1014.8 10.8
26/05:30am 9.1 4.0 7.5 90 0.8 WNW 24 44 13 24 1014.8 1014.8 10.8
26/05:27am 8.8 4.4 7.6 92 0.6 WNW 20 44 11 24 1014.8 1014.8 10.8
26/05:00am 8.1 4.6 7.2 94 0.4 NW 15 24 8 13 1014.6 1014.6 10.6
26/04:30am 8.5 4.7 7.6 94 0.4 NW 17 33 9 18 1014.4 1014.4 10.6
26/04:00am 8.2 4.7 7.4 95 0.4 NNW 15 22 8 12 1014.2 1014.2 10.4
26/03:30am 8.7 5.3 7.8 94 0.4 NNW 15 22 8 12 1014.2 1014.2 10.2
26/03:00am 8.8 5.9 8.0 95 0.4 NNW 13 19 7 10 1014.6 1014.6 9.8
26/02:30am 8.1 4.6 7.0 93 0.5 WNW 15 24 8 13 1015.1 1015.1 8.6
26/02:00am 9.0 6.5 8.2 95 0.4 W 11 19 6 10 1014.8 1014.8 6.6
26/01:30am 8.6 4.5 7.8 95 0.4 NNW 19 26 10 14 1014.0 1014.0 6.4
26/01:00am 8.7 5.0 7.8 94 0.4 NNW 17 24 9 13 1014.1 1014.1 6.4
26/12:30am 9.1 5.1 8.2 94 0.4 NNW 19 28 10 15 1014.3 1014.3 6.4
26/12:00am 9.3 5.4 8.5 95 0.4 NNW 19 33 10 18 1014.5 1014.5 6.2
 
Date/Time
EDT
Temp
°C
App
Temp
°C
Dew
Point
Rel
Hum
%
Delta-T
°C
Wind Press
QNH
hPa
Press
MSL
hPa
Rain
since 9 am
mm
Dir
 
Spd
km/h
Gust
km/h
Spd
kts
Gust
kts
25/11:30pm 9.3 5.7 8.5 95 0.4 NNW 17 26 9 14 1014.2 1014.2 6.0
25/11:00pm 9.3 6.1 8.5 95 0.4 NNW 15 24 8 13 1014.2 1014.2 5.6
25/10:30pm 9.4 6.2 8.6 95 0.4 NNW 15 22 8 12 1014.1 1014.1 5.4
25/10:00pm 9.8 6.3 8.9 94 0.4 NNW 17 28 9 15 1014.8 1014.8 4.6
25/09:30pm 10.4 7.4 9.3 93 0.5 NW 15 24 8 13 1014.4 1014.4 2.8
25/09:00pm 10.5 5.4 9.3 92 0.6 W 26 41 14 22 1013.7 1013.7 1.4
25/08:31pm 10.5 2.9 8.9 90 0.8 W 39 59 21 32 1014.0 1014.0 1.0
25/08:30pm 10.5 2.5 8.9 90 0.8 W 41 59 22 32 1014.0 1014.0 0.8
25/08:04pm 11.8 4.4 10.0 89 0.9 W 39 57 21 31 1013.2 1013.2 0.2
25/08:00pm 12.3 4.8 10.7 90 0.8 W 41 57 22 31 1013.1 1013.1 0.2
25/07:30pm 15.1 9.4 11.3 78 2.0 W 32 54 17 29 1012.1 1012.1 0.0
25/07:25pm 16.5 12.7 9.9 65 3.5 WNW 20 48 11 26 1012.0 1012.0 0.0
25/07:00pm 18.6 13.8 4.8 40 6.6 NNW 19 41 10 22 1011.1 1011.1 0.0
25/06:30pm 19.0 13.7 5.1 40 6.7 NNW 22 37 12 20 1010.9 1010.9 0.0
25/06:00pm 19.1 13.7 4.5 38 7.0 NNW 22 33 12 18 1011.1 1011.1 0.0
25/05:30pm 19.3 14.2 3.9 36 7.3 NNW 20 41 11 22 1011.1 1011.1 0.0
25/05:00pm 19.5 13.2 4.0 36 7.4 NNW 26 44 14 24 1011.4 1011.4 0.0
25/04:30pm 20.5 15.6 4.9 36 7.6 NNW 20 39 11 21 1011.8 1011.8 0.0
25/04:00pm 19.9 15.1 4.4 36 7.5 NNW 19 35 10 19 1012.4 1012.4 0.0
25/03:30pm 20.0 14.9 4.1 35 7.6 NNW 20 44 11 24 1012.8 1012.8 0.0
25/03:00pm 20.0 15.0 4.5 36 7.5 NW 20 33 11 18 1013.3 1013.3 0.0
25/02:30pm 19.2 14.8 4.6 38 7.0 NW 17 35 9 19 1013.7 1013.7 0.0
25/02:00pm 19.5 14.5 4.8 38 7.1 NNW 20 33 11 18 1014.4 1014.4 0.0
25/01:30pm 18.9 14.4 6.1 43 6.3 N 19 32 10 17 1015.0 1015.0 0.0
25/01:00pm 18.2 13.9 5.1 42 6.3 NNW 17 28 9 15 1015.7 1015.7 0.0
25/12:30pm 16.8 12.0 4.8 45 5.7 N 19 30 10 16 1016.4 1016.4 0.0
25/12:00pm 16.5 12.1 4.9 46 5.5 N 17 30 9 16 1016.7 1016.7 0.0
25/11:30am 15.2 11.1 4.6 49 4.9 NNW 15 24 8 13 1017.1 1017.1 0.0
25/11:00am 15.2 11.2 5.1 51 4.8 N 15 26 8 14 1017.2 1017.2 0.0
25/10:30am 15.1 11.6 5.3 52 4.6 NNW 13 22 7 12 1017.4 1017.4 0.0
25/10:00am 14.2 10.3 5.3 55 4.2 NNW 15 24 8 13 1017.7 1017.7 0.0
25/09:30am 13.3 9.7 5.2 58 3.8 N 13 20 7 11 1017.8 1017.8 0.0
25/09:00am 12.8 9.2 5.2 60 3.5 N 13 20 7 11 1017.9 1017.9 0.0
25/08:30am 12.2 8.6 4.9 61 3.3 N 13 20 7 11 1017.9 1017.9 0.0
25/08:00am 11.7 8.5 5.1 64 3.0 NNW 11 17 6 9 1018.1 1018.1 0.0
25/07:30am 11.3 8.9 5.4 67 2.7 NNW 7 11 4 6 1017.9 1017.9 0.0
25/07:00am 11.5 8.8 5.4 66 2.8 NNW 9 15 5 8 1018.0 1018.0 0.0
25/06:30am 11.4 9.1 5.5 67 2.7 NNW 7 13 4 7 1017.9 1017.9 0.0
25/06:00am 11.6 8.9 5.5 66 2.8 NNW 9 13 5 7 1017.9 1017.9 0.0
25/05:30am 11.5 8.8 5.6 67 2.7 NNW 9 13 5 7 1018.0 1018.0 0.0
25/05:00am 11.9 9.2 5.5 65 3.0 NNW 9 13 5 7 1018.0 1018.0 0.0
25/04:30am 11.8 9.5 5.9 67 2.8 NNW 7 9 4 5 1018.2 1018.2 0.0
25/04:00am 12.0 9.7 5.9 66 2.8 N 7 11 4 6 1018.4 1018.4 0.0
25/03:30am 12.2 9.5 5.8 65 3.0 NNW 9 15 5 8 1019.0 1019.0 0.0
25/03:00am 12.3 10.0 5.7 64 3.1 NNW 7 13 4 7 1019.4 1019.4 0.0
25/02:30am 12.4 10.1 5.8 64 3.1 N 7 13 4 7 1019.7 1019.7 0.0
25/02:00am 12.6 10.3 5.8 63 3.2 NNW 7 13 4 7 1020.1 1020.1 0.0
25/01:30am 12.6 9.9 5.5 62 3.3 NNW 9 13 5 7 1020.5 1020.5 0.0
25/01:00am 12.7 10.5 5.4 61 3.4 NW 6 11 3 6 1020.4 1020.4 0.0
25/12:30am 12.8 10.3 5.0 59 3.6 NNW 7 9 4 5 1020.1 1020.1 0.0
25/12:00am 12.7 11.2 4.9 59 3.6 NW 2 6 1 3 1020.5 1020.5 0.0
 
Date/Time
EDT
Temp
°C
App
Temp
°C
Dew
Point
Rel
Hum
%
Delta-T
°C
Wind Press
QNH
hPa
Press
MSL
hPa
Rain
since 9 am
mm
Dir
 
Spd
km/h
Gust
km/h
Spd
kts
Gust
kts
24/11:30pm 13.0 10.1 4.9 58 3.7 NNW 9 11 5 6 1020.7 1020.7 0.0
24/11:00pm 13.7 11.9 5.3 57 3.9 WSW 4 6 2 3 1020.9 1020.9 0.0
24/10:30pm 13.9 11.6 5.8 58 3.8 SW 7 13 4 7 1021.1 1021.1 0.0
24/10:00pm 14.0 11.3 5.6 57 4.0 SW 9 17 5 9 1020.8 1020.8 0.0
24/09:30pm 13.6 11.7 4.7 55 4.1 SE 4 9 2 5 1020.7 1020.7 0.0
24/09:00pm 13.6 11.3 4.7 55 4.1 S 6 9 3 5 1021.0 1021.0 0.0
24/08:30pm 13.7 10.4 4.8 55 4.1 SW 11 19 6 10 1020.8 1020.8 0.0
24/08:00pm 13.7 11.2 4.8 55 4.1 SSW 7 19 4 10 1021.1 1021.1 0.0
24/07:30pm 13.7 10.5 5.1 56 4.0 SSW 11 17 6 9 1021.0 1021.0 0.0
24/07:00pm 13.8 9.9 5.4 57 3.9 S 15 20 8 11 1021.0 1021.0 0.0
24/06:30pm 13.8 9.5 5.2 56 4.0 SSW 17 26 9 14 1020.9 1020.9 0.0
24/06:00pm 13.8 9.9 5.4 57 3.9 SSW 15 20 8 11 1020.9 1020.9 0.0
24/05:30pm 13.9 9.9 4.8 54 4.2 SSW 15 20 8 11 1021.0 1021.0 0.0
24/05:00pm 14.1 10.4 4.4 52 4.5 SSW 13 19 7 10 1020.7 1020.7 0.0
24/04:30pm 14.2 9.2 4.8 53 4.4 SW 20 28 11 15 1020.9 1020.9 0.0
24/04:00pm 14.2 9.3 5.3 55 4.2 SW 20 28 11 15 1020.7 1020.7 0.0
24/03:30pm 14.6 9.1 5.7 55 4.2 SW 24 33 13 18 1020.8 1020.8 0.0
24/03:00pm 14.8 9.1 6.9 59 3.8 SSW 26 37 14 20 1020.7 1020.7 0.0
24/02:30pm 14.4 8.3 6.7 60 3.7 SSW 28 37 15 20 1020.8 1020.8 0.0
24/02:00pm 14.6 9.3 6.9 60 3.7 SSW 24 33 13 18 1020.7 1020.7 0.0
24/01:30pm 14.3 9.6 5.1 54 4.3 SSW 19 28 10 15 1021.0 1021.0 0.0
24/01:00pm 14.0 9.3 5.9 58 3.8 SSW 20 30 11 16 1021.0 1021.0 0.0
24/12:30pm 13.9 9.3 6.3 60 3.6 SSW 20 32 11 17 1021.1 1021.1 0.0
24/12:00pm 13.7 9.0 6.1 60 3.6 SSW 20 32 11 17 1021.1 1021.1 0.0
24/11:30am 13.4 10.5 6.7 64 3.2 SSW 11 19 6 10 1021.3 1021.3 0.0
24/11:00am 13.3 8.7 6.6 64 3.2 S 20 32 11 17 1021.2 1021.2 0.0
24/10:30am 13.9 9.0 5.0 55 4.1 S 20 32 11 17 1020.8 1020.8 0.0
24/10:00am 13.7 8.0 4.8 55 4.1 S 24 35 13 19 1020.5 1020.5 0.0
24/09:30am 13.4 8.6 5.8 60 3.6 SSW 20 28 11 15 1020.2 1020.2 0.0
24/09:00am 13.4 8.0 6.3 62 3.4 S 24 35 13 19 1019.9 1019.9 1.4
24/08:30am 12.8 8.4 7.3 69 2.7 S 20 32 11 17 1019.8 1019.8 1.4
24/08:00am 13.4 8.1 4.8 56 4.0 S 22 33 12 18 1019.3 1019.3 1.4
24/07:30am 13.5 7.9 5.2 57 3.9 S 24 37 13 20 1018.9 1018.9 1.4
24/07:00am 13.4 8.4 6.5 63 3.3 S 22 32 12 17 1018.6 1018.6 1.4
24/06:30am 12.9 7.2 6.5 65 3.1 S 26 39 14 21 1018.4 1018.4 1.4

Other Formats:

Comma delimited format used in spreadsheet applications
http://www.bom.gov.au/fwo/IDV60801/IDV60801.94830.axf

JavaScript Object Notation format (JSON) in row-major order
http://www.bom.gov.au/fwo/IDV60801/IDV60801.94830.json